Temperature
24 24 24 24 23 22 22 22 23 24 24 25 25 25 26 26 26 25 24 23 21 20 19 18 18 17 17 17 16 16 16 15 15 15 16 16 16 15 14 14 14 15 15 15
22 23 23 23 24 24 24 24 24 24 24 25 26 26 26 26 26 25 24 23 22 21 20 19 18 18 17 17 17 16 16 15 15 15 16 16 16 15 14 14 14 14 14 14
19 21 21 21 23 23 24 24 24 23 24 26 26 26 26 26 25 24 24 23 22 22 21 20 19 18 18 17 17 16 16 15 15 15 16 16 15 15 14 14 13 13 14 14
17 18 18 21 24 24 24 25 25 25 25 26 26 25 25 24 24 23 22 21 21 20 20 20 20 19 18 17 17 17 16 16 15 15 15 15 14 14 14 13 13 13 13 13
16 17 19 22 24 24 24 24 26 26 26 26 25 24 24 23 22 21 21 20 19 18 18 18 18 18 18 18 17 17 16 16 15 14 14 14 13 13 13 13 12 13 13 13
16 16 18 23 25 26 25 24 26 26 26 26 25 23 23 22 21 20 19 17 17 16 17 17 17 17 17 17 17 16 16 15 14 14 14 13 13 13 13 12 12 12 13 13
16 17 20 25 25 25 23 24 25 26 25 25 25 23 22 20 19 18 17 16 16 16 15 15 15 15 15 15 15 15 15 14 14 14 13 13 13 13 12 12 12 12 12 13
19 20 22 25 25 25 25 26 25 25 25 25 24 22 21 20 18 17 16 15 15 15 14 14 14 15 15 14 14 13 13 13 13 13 12 12 12 12 12 12 12 12 12 12
22 23 25 25 25 25 25 25 25 24 24 24 23 22 20 19 17 16 16 15 14 14 14 14 14 14 14 13 13 12 12 12 12 12 12 12 12 12 12 12 12 12 12 12
22 24 25 25 25 25 25 24 24 23 23 23 22 22 20 19 18 17 16 15 14 14 14 14 13 13 13 12 12 11 11 11 11 11 11 12 12 12 12 12 12 12 12 12
24 25 26 25 25 25 24 23 23 23 22 22 22 22 20 19 18 17 16 15 15 15 15 14 14 13 12 12 11 11 11 10 10 11 11 11 11 11 11 11 12 12 12 12
24 25 25 25 24 24 23 23 23 23 22 22 21 21 20 19 18 17 16 15 15 15 15 15 14 13 12 11 11 11 11 11 10 11 11 11 11 11 11 11 11 12 12 12
24 25 24 24 24 24 23 23 22 22 22 22 21 21 20 19 18 17 16 16 15 15 15 14 14 13 12 11 11 11 11 11 11 11 11 11 11 11 11 11 11 12 12 11
22 23 24 24 24 24 23 23 22 22 22 21 21 20 19 19 18 17 17 16 16 16 15 14 13 12 12 11 11 11 11 11 11 11 11 11 11 11 11 11 11 11 11 11
20 22 23 23 24 23 23 23 22 22 22 21 20 20 19 18 18 17 17 17 16 16 15 14 13 12 12 12 11 11 12 11 11 11 11 11 11 11 11 11 11 11 11 11
21 22 22 23 23 23 23 23 23 22 22 21 20 19 19 18 18 18 17 17 16 15 14 14 13 12 12 12 12 12 11 11 11 11 11 11 11 11 11 11 10 10 10 10
21 21 22 23 23 23 23 23 23 23 22 21 20 19 19 19 18 18 18 17 16 15 14 14 13 13 12 12 11 11 11 11 11 11 11 11 11 11 11 10 10 10 10 9
20 21 22 23 23 23 23 23 23 23 22 21 20 20 19 19 19 18 17 17 16 15 14 13 13 12 12 12 11 11 10 10 10 11 11 11 11 11 10 10 10 10 10 10
21 21 22 22 22 23 23 22 22 22 22 21 21 20 19 19 19 18 17 16 15 14 14 13 12 11 11 11 11 10 10 10 10 10 11 11 11 11 11 10 10 10 10 10
21 21 22 22 22 22 22 22 22 22 22 21 21 20 20 19 19 18 17 16 15 14 14 13 12 11 11 11 10 10 10 10 10 10 10 10 10 10 10 10 10 10 10 10
21 22 22 22 22 21 21 21 21 21 22 21 21 20 20 19 19 18 17 15 14 14 14 13 12 11 11 11 10 10 10 10 10 10 10 10 10 10 10 10 10 10 10 10
22 22 21 21 21 21 21 20 20 21 21 21 21 20 20 19 18 17 16 16 15 14 14 13 12 12 11 11 10 10 10 10 10 10 10 10 10 10 10 10 10 10 10 10
22 22 21 21 21 21 21 20 20 20 21 21 21 20 20 19 18 17 15 15 15 14 13 13 12 12 11 10 10 10 10 10 10 10 10 10 10 10 10 10 10 10 10 10
21 21 21 22 22 22 21 20 20 20 20 20 20 20 19 18 17 16 16 16 15 14 13 13 12 12 11 10 10 10 9 9 9 9 10 9 9 9 9 9 10 10 10 9
20 20 21 21 21 21 21 20 20 20 20 20 19 19 18 18 17 16 16 15 14 14 13 13 12 11 10 9 9 9 9 9 9 9 9 9 9 9 9 9 9 9 9 9
19 20 20 20 21 21 20 20 19 19 19 19 18 17 17 16 16 16 15 15 14 14 13 12 12 11 10 9 9 9 9 9 9 9 9 9 9 8 8 9 9 9 9 9
18 19 19 19 20 20 20 19 19 18 18 18 17 16 16 15 16 16 15 14 14 13 13 12 11 10 10 9 9 9 9 9 9 9 8 9 8 8 9 9 9 9 9 8
Wind_Speed
18 18 17 17 16 15 15 18 17 16 14 10 9 8 9 9 5 4 6 8 10 9 7 8 8 9 10 9 9 8 10 11 10 9 8 7 6 5 5 5 5 4 3 3
18 18 18 20 20 18 18 19 19 17 14 12 9 8 7 6 4 6 6 7 9 11 10 9 9 8 7 7 9 10 9 9 9 8 8 7 5 4 3 2 2 4 5 4
14 17 18 18 20 21 20 20 18 15 11 9 7 7 7 5 2 4 3 3 2 1 6 8 9 9 9 8 8 10 10 9 8 5 6 6 5 3 2 1 3 5 6 5
5 8 13 12 13 16 17 16 15 12 8 6 4 6 5 6 7 6 7 5 4 5 6 5 4 5 8 9 8 8 8 11 9 8 8 7 6 6 5 4 5 5 5 4
3 6 11 13 10 8 8 7 10 9 5 1 5 5 2 8 8 8 8 7 6 5 5 6 6 4 1 5 7 7 7 10 10 8 8 8 7 6 5 5 6 5 4 4
4 4 5 5 8 3 3 5 3 4 3 2 2 4 5 10 9 8 8 7 4 2 4 6 8 8 5 3 2 5 7 6 6 6 7 7 6 6 6 5 5 4 3 3
10 7 6 5 8 2 1 2 5 3 4 5 5 3 9 10 9 9 8 6 5 6 7 6 7 6 5 5 5 4 5 5 4 4 6 6 6 5 5 4 4 4 4 4
8 6 2 8 5 2 3 4 3 4 4 5 4 8 10 10 10 9 7 6 5 6 6 5 6 5 4 5 5 4 2 3 4 5 6 6 7 5 3 4 4 5 4 4
5 2 6 4 1 4 7 8 7 6 6 6 5 5 9 10 10 8 8 6 5 5 5 4 3 4 4 4 3 3 1 2 4 5 6 5 4 5 4 4 4 5 5 4
6 8 4 3 1 3 4 5 5 5 6 6 8 4 10 10 10 9 8 7 5 5 6 6 5 2 2 3 2 2 2 2 2 2 3 3 3 4 4 5 5 5 4 4
12 6 2 2 1 3 4 5 6 5 4 5 6 4 10 8 9 9 7 7 6 5 4 5 6 4 2 1 3 3 3 2 2 2 2 1 1 2 1 1 1 2 2 2
6 3 1 2 5 5 4 5 5 5 4 2 3 4 8 8 8 9 8 7 6 5 4 2 5 5 4 3 1 3 2 2 2 2 2 2 2 3 6 5 7 7 6 4
9 5 1 1 4 4 3 2 3 4 4 3 4 6 7 8 8 8 9 8 8 7 4 3 4 3 3 4 2 0 1 1 2 2 2 1 2 3 4 4 4 4 6 6
19 11 6 5 5 4 3 2 3 4 4 4 5 7 8 8 9 9 8 8 7 5 5 4 5 4 2 2 3 3 3 2 2 1 1 2 3 3 4 4 4 4 4 5
22 16 11 8 7 6 5 5 6 5 4 5 8 8 8 9 9 8 7 7 7 6 5 6 6 5 3 1 2 3 2 0 1 2 2 2 3 4 4 4 4 5 5 4
20 16 14 13 11 10 8 8 7 5 4 6 9 9 9 8 9 8 7 7 7 7 6 6 7 6 4 2 1 1 2 2 1 1 2 2 1 1 2 3 4 4 3 4
19 17 16 15 12 10 9 8 7 5 5 8 10 10 10 9 8 8 7 7 6 6 6 6 8 7 4 3 2 1 2 3 2 1 2 2 2 2 2 3 3 3 3 5
22 21 17 14 11 10 9 8 7 6 6 9 11 11 10 9 8 8 8 8 7 6 7 8 10 8 5 3 1 1 1 2 1 1 2 3 2 1 2 3 4 4 4 4
22 19 16 15 14 11 8 7 7 7 8 9 12 11 10 9 8 8 9 9 8 7 7 9 10 8 7 5 1 1 1 2 1 1 3 4 2 2 3 3 4 3 4 4
20 19 19 16 13 10 7 7 8 6 8 9 11 11 10 9 9 9 10 8 6 6 9 10 7 5 7 6 2 0 2 1 2 3 2 2 2 3 3 4 4 4 4 4
17 16 13 10 8 7 7 7 7 6 7 9 10 11 10 9 9 10 9 7 6 9 11 11 6 6 6 5 4 2 3 3 3 3 2 2 2 1 2 3 4 4 3 3
9 7 7 7 7 7 7 7 7 7 8 8 9 10 10 11 11 10 9 8 8 12 9 5 6 8 7 5 3 4 4 4 3 3 3 2 2 2 2 2 2 2 2 2
7 7 8 9 9 9 7 7 8 8 8 8 9 9 11 11 10 10 9 9 9 10 7 6 12 13 8 4 4 5 4 4 4 4 3 3 2 2 2 3 2 2 1 1
6 6 6 7 7 7 7 7 7 7 8 7 8 10 13 11 8 7 9 13 13 10 7 13 16 12 7 4 5 5 4 4 4 4 3 3 3 2 2 2 2 2 2 2
7 8 8 6 5 4 6 7 7 8 8 7 10 13 11 9 9 10 11 12 14 13 10 12 14 11 6 5 5 5 5 5 4 2 3 3 3 2 3 3 4 3 3 3
5 4 3 3 3 4 5 6 6 7 7 9 9 10 9 9 12 11 11 12 13 12 10 8 8 6 4 5 6 6 5 5 3 2 3 2 3 3 3 4 5 4 3 3
3 1 1 2 3 4 6 7 8 8 8 10 10 10 11 11 11 11 12 11 10 9 9 7 7 5 4 6 5 5 4 4 4 3 2 2 3 4 5 5 4 2 2 2
Wind_Direction
269 272 273 261 248 240 251 264 272 280 288 292 282 263 264 266 239 172 162 169 174 183 202 194 200 202 201 198 190 175 168 178 188 186 177 170 178 199 220 249 284 304 286 269
277 281 282 279 274 265 255 258 266 271 271 276 283 283 275 273 271 176 179 195 190 185 195 205 203 202 199 192 187 176 184 188 175 177 161 157 167 205 233 226 265 304 292 267
281 289 290 272 264 262 260 258 258 257 259 271 287 307 305 287 289 127 106 56 46 182 197 206 206 195 191 195 199 189 185 161 147 162 145 148 164 208 241 269 262 264 272 257
275 279 261 263 270 262 254 250 243 240 241 256 329 339 339 46 45 57 86 74 45 14 351 328 271 203 189 188 193 198 176 155 161 176 165 165 185 205 207 229 245 239 258 252
232 242 267 264 245 224 233 244 230 224 214 77 26 314 209 100 77 74 82 76 58 21 341 335 344 348 221 185 179 183 163 158 163 168 163 168 184 199 209 226 226 214 234 216
232 239 262 210 152 142 262 266 216 107 56 7 284 285 112 113 112 107 100 94 91 30 29 28 21 11 12 30 87 125 122 123 133 148 158 174 195 207 214 230 221 190 215 214
249 252 254 126 108 120 241 76 65 40 340 321 294 82 124 126 123 116 107 105 97 71 57 35 21 6 4 26 36 74 113 129 156 176 181 191 207 214 212 220 211 198 212 217
234 243 212 144 161 227 312 10 15 349 332 323 342 118 135 131 123 121 119 114 100 95 82 51 18 1 42 62 48 60 117 183 208 209 209 213 208 208 193 200 208 211 219 220
233 220 124 147 41 349 337 334 344 344 342 340 319 171 144 138 142 146 140 132 122 123 125 119 71 18 31 69 51 14 315 246 246 241 234 237 194 168 187 205 208 210 203 206
245 242 172 148 281 317 333 342 340 338 340 322 293 221 147 151 157 151 144 141 156 171 177 164 149 135 18 9 16 330 310 321 316 290 268 239 184 170 189 208 206 210 209 212
227 230 182 189 110 35 18 341 321 314 301 295 285 184 147 159 154 147 143 148 172 194 203 171 160 156 142 359 327 304 276 229 225 239 306 318 122 111 175 164 179 173 172 186
242 230 216 50 41 23 334 309 309 314 305 262 249 151 145 148 139 143 150 157 180 201 206 181 147 147 144 139 260 301 308 235 208 211 233 221 165 131 85 99 109 108 101 87
285 286 298 330 325 311 306 328 323 304 283 234 192 155 143 135 139 151 160 171 190 198 174 111 112 118 120 137 158 84 18 319 222 210 201 191 195 188 169 129 117 131 134 122
307 308 289 287 300 320 322 305 283 279 249 206 166 145 142 146 154 165 174 183 184 153 134 138 130 128 128 147 148 107 63 23 328 268 180 195 213 213 200 180 171 162 160 146
286 289 288 289 287 276 264 254 248 251 249 190 156 151 157 162 164 173 183 174 146 142 155 150 138 136 122 52 62 89 103 220 259 208 178 208 222 214 200 182 155 144 139 132
267 272 277 276 269 260 257 267 253 235 230 183 161 162 169 173 166 174 181 155 149 167 173 163 146 134 134 135 100 161 162 154 309 198 172 201 245 67 92 111 120 130 142 135
260 264 268 268 260 253 254 263 263 242 202 177 166 167 171 177 173 174 161 145 158 165 154 138 123 122 130 138 141 165 154 157 202 238 194 163 111 69 68 91 110 124 121 111
249 252 256 265 262 254 257 257 249 227 190 176 167 170 176 180 175 165 150 147 152 137 131 126 127 137 149 152 135 120 128 109 83 33 130 131 129 136 119 107 112 118 120 125
243 248 255 263 267 269 271 270 261 215 186 179 173 175 178 174 165 158 148 152 154 150 135 116 130 155 149 125 86 266 90 112 129 88 111 127 152 144 123 123 129 139 139 145
242 246 251 253 254 253 248 253 260 226 185 180 174 173 171 164 155 146 142 146 150 148 136 134 158 164 127 124 149 202 125 111 86 91 95 127 137 130 130 136 143 151 157 165
235 239 243 244 242 242 239 237 238 218 184 180 176 172 166 154 143 138 140 139 126 117 127 141 148 116 114 135 176 167 132 106 92 91 97 82 61 63 139 150 156 166 171 173
229 228 229 228 224 223 220 220 223 210 184 180 175 166 152 140 138 138 135 132 125 122 131 150 130 123 132 153 151 116 106 101 98 91 88 78 46 23 59 88 110 130 156 173
215 213 215 220 222 223 209 206 210 193 180 177 171 161 143 139 144 146 143 134 140 145 143 128 129 136 145 170 126 119 114 101 92 87 81 79 67 51 60 69 74 74 54 72
272 271 263 249 231 209 185 191 183 167 163 158 155 139 132 133 138 135 129 136 144 141 118 132 142 151 176 159 130 122 110 101 99 95 80 68 63 57 64 67 63 67 54 54
274 272 264 249 231 184 166 164 148 144 145 139 132 127 133 138 137 129 130 139 136 127 127 151 155 166 194 143 128 120 107 94 87 101 124 113 96 72 63 61 54 51 55 64
293 283 264 217 194 152 149 142 138 136 135 130 127 129 128 123 120 126 132 140 142 133 139 150 159 185 189 127 122 121 124 128 115 86 88 104 113 106 90 76 59 48 51 56
305 300 328 239 180 149 138 136 139 142 142 141 140 135 131 130 132 136 138 144 148 144 147 156 166 180 139 125 134 144 148 154 160 162 145 107 91 89 80 72 61 47 55 66
Height
1461 1458 1459 1460 1461 1465 1469 1468 1468 1463 1460 1456 1452 1452 1451 1451 1450 1452 1455 1458 1461 1463 1466 1468 1470 1472 1473 1475 1476 1478 1479 1481 1483 1486 1488 1490 1491 1493 1495 1496 1497 1498 1498 1498
1463 1458 1457 1457 1454 1454 1456 1455 1455 1454 1454 1448 1447 1447 1446 1446 1447 1448 1452 1455 1458 1460 1462 1464 1466 1468 1470 1471 1472 1473 1475 1478 1480 1482 1484 1486 1488 1490 1492 1493 1493 1493 1494 1494
1475 1467 1464 1463 1453 1450 1448 1445 1448 1452 1448 1443 1443 1443 1444 1444 1445 1447 1451 1454 1456 1458 1459 1461 1462 1464 1465 1467 1469 1470 1472 1474 1476 1479 1480 1483 1485 1486 1487 1488 1489 1489 1490 1490
1477 1477 1480 1455 1440 1438 1438 1438 1438 1438 1438 1439 1441 1442 1442 1443 1445 1448 1451 1454 1456 1457 1458 1459 1459 1460 1461 1462 1464 1467 1469 1470 1472 1475 1477 1479 1481 1482 1483 1484 1485 1486 1486 1487
1479 1479 1466 1446 1435 1434 1437 1436 1430 1432 1434 1437 1440 1441 1442 1444 1447 1449 1451 1453 1454 1455 1456 1457 1457 1457 1458 1459 1461 1463 1465 1465 1468 1471 1473 1475 1477 1478 1480 1481 1482 1482 1483 1484
1477 1478 1471 1439 1428 1429 1434 1439 1428 1430 1434 1436 1439 1442 1443 1445 1447 1449 1450 1451 1453 1455 1455 1455 1454 1454 1455 1457 1458 1460 1461 1463 1465 1467 1470 1472 1473 1475 1476 1477 1478 1479 1480 1481
1472 1470 1455 1429 1429 1432 1445 1442 1432 1433 1435 1436 1437 1439 1442 1444 1446 1447 1449 1451 1453 1454 1454 1454 1454 1455 1455 1456 1457 1458 1458 1460 1462 1464 1466 1468 1470 1471 1473 1474 1475 1476 1478 1479
1455 1457 1447 1428 1430 1433 1433 1430 1432 1433 1435 1436 1437 1438 1440 1443 1445 1447 1449 1451 1452 1453 1454 1454 1454 1455 1455 1455 1455 1456 1456 1458 1459 1461 1463 1465 1466 1468 1469 1471 1472 1474 1475 1477
1436 1437 1428 1427 1428 1430 1430 1431 1432 1433 1433 1434 1436 1437 1439 1442 1445 1447 1449 1450 1452 1453 1454 1454 1454 1455 1455 1455 1454 1455 1455 1456 1457 1458 1460 1462 1464 1465 1466 1467 1469 1471 1472 1474
1434 1426 1424 1425 1427 1429 1430 1431 1431 1432 1433 1433 1434 1434 1436 1440 1444 1447 1449 1450 1452 1453 1453 1453 1453 1454 1454 1454 1453 1453 1453 1453 1453 1454 1456 1459 1460 1461 1463 1464 1466 1467 1469 1471
1422 1419 1421 1423 1425 1427 1429 1430 1430 1431 1431 1431 1431 1432 1435 1439 1443 1445 1448 1450 1451 1452 1453 1452 1452 1452 1452 1451 1451 1450 1450 1450 1450 1451 1453 1455 1457 1458 1460 1461 1463 1465 1466 1468
1421 1417 1420 1422 1424 1426 1428 1428 1428 1428 1429 1429 1430 1432 1434 1438 1441 1444 1446 1449 1450 1451 1451 1451 1450 1450 1449 1449 1448 1448 1448 1448 1448 1449 1451 1453 1454 1456 1457 1459 1460 1461 1463 1464
1418 1417 1419 1421 1423 1424 1425 1426 1426 1427 1427 1428 1429 1431 1434 1437 1439 1443 1445 1447 1448 1448 1449 1449 1449 1448 1448 1447 1447 1446 1446 1446 1447 1448 1449 1450 1451 1453 1454 1456 1457 1459 1460 1462
1419 1417 1418 1419 1421 1422 1423 1424 1425 1425 1425 1426 1428 1430 1433 1435 1438 1441 1443 1445 1446 1446 1447 1447 1447 1446 1446 1446 1446 1445 1445 1445 1445 1446 1447 1448 1449 1450 1451 1453 1454 1456 1458 1459
1420 1418 1417 1417 1418 1419 1420 1421 1422 1422 1423 1424 1426 1429 1431 1434 1437 1440 1442 1443 1443 1444 1445 1445 1445 1445 1445 1445 1445 1444 1444 1444 1445 1445 1446 1446 1448 1449 1450 1452 1453 1454 1455 1456
1417 1415 1415 1415 1415 1415 1416 1417 1418 1419 1420 1421 1424 1427 1430 1433 1435 1438 1440 1441 1441 1442 1443 1443 1443 1443 1443 1443 1443 1443 1443 1444 1445 1445 1446 1447 1448 1450 1451 1452 1453 1453 1454 1455
1411 1411 1411 1411 1410 1411 1412 1413 1414 1415 1416 1418 1421 1424 1428 1431 1434 1436 1437 1438 1439 1440 1441 1442 1441 1442 1442 1443 1442 1443 1443 1444 1444 1445 1446 1447 1449 1450 1451 1452 1453 1453 1454 1455
1405 1405 1406 1405 1405 1406 1407 1408 1410 1411 1413 1415 1418 1422 1425 1428 1431 1433 1434 1436 1437 1439 1440 1440 1440 1440 1441 1441 1442 1443 1444 1444 1445 1445 1446 1448 1449 1450 1451 1451 1452 1452 1453 1454
1397 1398 1399 1400 1401 1401 1402 1404 1405 1407 1409 1412 1415 1418 1422 1425 1428 1430 1431 1433 1435 1437 1438 1439 1439 1439 1439 1440 1441 1442 1443 1444 1445 1445 1446 1447 1448 1449 1450 1451 1452 1452 1452 1453
1390 1392 1393 1394 1395 1396 1397 1399 1401 1402 1405 1408 1411 1415 1419 1422 1425 1427 1429 1431 1433 1435 1436 1437 1438 1439 1439 1439 1440 1441 1442 1443 1444 1445 1446 1447 1448 1449 1450 1451 1452 1452 1453 1454
1382 1384 1386 1387 1388 1390 1392 1394 1396 1398 1401 1404 1408 1411 1415 1419 1422 1424 1426 1429 1432 1433 1434 1436 1437 1437 1438 1438 1439 1441 1442 1443 1444 1445 1446 1447 1448 1449 1450 1451 1452 1453 1453 1454
1376 1378 1380 1382 1384 1386 1387 1389 1391 1394 1397 1401 1404 1408 1412 1415 1419 1422 1424 1426 1429 1431 1433 1434 1435 1436 1437 1438 1440 1441 1443 1443 1444 1445 1446 1446 1448 1449 1450 1451 1451 1452 1453 1453
1373 1374 1376 1378 1380 1382 1383 1385 1387 1390 1393 1397 1401 1405 1409 1412 1415 1418 1421 1424 1427 1429 1431 1432 1434 1435 1437 1439 1440 1441 1442 1443 1444 1444 1445 1446 1447 1448 1449 1450 1450 1451 1452 1452
1370 1372 1373 1375 1376 1378 1379 1381 1384 1387 1391 1395 1399 1403 1406 1410 1414 1417 1420 1422 1425 1427 1429 1431 1433 1435 1437 1439 1440 1441 1441 1442 1442 1443 1443 1444 1445 1447 1448 1448 1449 1449 1450 1450
1369 1369 1370 1372 1373 1375 1377 1380 1383 1386 1390 1394 1398 1401 1404 1408 1412 1414 1417 1421 1423 1426 1428 1430 1432 1435 1437 1439 1440 1440 1441 1442 1443 1444 1444 1444 1445 1445 1446 1447 1447 1447 1447 1447
1366 1366 1367 1369 1371 1373 1376 1378 1381 1385 1389 1392 1396 1400 1403 1407 1410 1413 1417 1420 1422 1425 1427 1429 1432 1435 1438 1439 1440 1441 1442 1443 1444 1445 1445 1446 1446 1446 1446 1446 1446 1446 1446 1446
1365 1365 1365 1367 1369 1372 1375 1377 1381 1384 1387 1391 1394 1399 1402 1405 1409 1412 1416 1419 1421 1424 1427 1429 1432 1435 1437 1438 1440 1441 1442 1443 1444 1445 1446 1446 1446 1446 1446 1445 1445 1445 1445 1445